Location: Newark
(41.0400°S, 62.7845°W)
Time: 06:18:38
(UTC+00:00)

Courier 1B Rocket - Pass Details

Date: 02 December 2021
Orbit: 920 x 1202 km, 28.2° (Epoch: 27 January)

Event Time Altitude Azimuth Distance (km) Brightness Sun altitude
Rises 20:00:28 0° 281° (W) 4,104 9.2 36.7°
Reaches altitude 10° 20:04:22 10° 298° (WNW) 3,120 8.7 35.9°
Maximum altitude 20:09:17 18° 338° (NNW) 2,512 7.6 35.0°
Drops below altitude 10° 20:14:05 10° 18° (NNE) 3,021 7.5 34.1°
Sets 20:17:48 0° 35° (NE) 3,926 7.9 33.4°
